This is the latest recevied weather packets stored in our database for station/object N0KWA. If no packets are shown the sender has not sent any weather packets the latest 10 day(s).
| Time | Temp. | Humidity | Pressure | Rain* | Wind** | Luminosity | Snow |
|---|---|---|---|---|---|---|---|
| 1777490805 | 30° C | 68% | 1014.4 hPa | 0 mm | - | 68 W/m² | - |
| 1777490502 | 29.44° C | 68% | 1014.5 hPa | 0 mm | - | 89 W/m² | - |
| 1777490198 | 30° C | 66% | 1014.5 hPa | 0 mm | - | 226 W/m² | - |
| 1777489895 | 30° C | 69% | 1014.6 hPa | 0 mm | - | 277 W/m² | - |
| 1777489593 | 29.44° C | 67% | 1014.7 hPa | 0 mm | - | 119 W/m² | - |
| 1777489289 | 30° C | 65% | 1014.7 hPa | 0 mm | - | 54 W/m² | - |
| 1777488987 | 30° C | 67% | 1014.9 hPa | 0 mm | - | 333 W/m² | - |
| 1777488684 | 29.44° C | 66% | 1014.9 hPa | 0 mm | - | 112 W/m² | - |
| 1777488381 | 29.44° C | 69% | 1015.1 hPa | 0 mm | - | 383 W/m² | - |
| 1777488080 | 29.44° C | 67% | 1015.1 hPa | 0 mm | - | 54 W/m² | - |
| 1777487777 | 29.44° C | 66% | 1015.4 hPa | 0 mm | - | 185 W/m² | - |
| 1777487475 | 30° C | 66% | 1015.4 hPa | 0 mm | - | 577 W/m² | - |
| 1777487172 | 30° C | 65% | 1015.6 hPa | 0 mm | - | 511 W/m² | - |
| 1777486868 | 30° C | 64% | 1015.7 hPa | 0 mm | - | 558 W/m² | - |
| 1777486565 | 29.44° C | 67% | 1016 hPa | 0 mm | - | 682 W/m² | - |
| 1777486262 | 29.44° C | 66% | 1015.8 hPa | 0 mm | - | 681 W/m² | - |
| 1777485960 | 29.44° C | 68% | 1016.2 hPa | 0 mm | - | 689 W/m² | - |
| 1777485655 | 29.44° C | 67% | 1016.1 hPa | 0 mm | - | 590 W/m² | - |
| 1777485351 | 29.44° C | 67% | 1016.2 hPa | 0 mm | - | 403 W/m² | - |
| 1777485047 | 29.44° C | 67% | 1016.1 hPa | 0 mm | - | 747 W/m² | - |
| 1777484745 | 29.44° C | 67% | 1016.3 hPa | 0 mm | - | 600 W/m² | - |
| 1777484441 | 29.44° C | 67% | 1016.3 hPa | 0 mm | - | 520 W/m² | - |
| 1777484138 | 28.89° C | 68% | 1016.4 hPa | 0 mm | - | 776 W/m² | - |
| 1777483834 | 28.89° C | 66% | 1016.6 hPa | 0 mm | - | 658 W/m² | - |
| 1777483531 | 28.89° C | 70% | 1016.6 hPa | 0 mm | - | 771 W/m² | - |
* Rain latest hour (hover to see other rain measurements)
** Current wind speed in m/s (hover to see current wind gust speed)